M I D A S
Marine Information and Data Acquisition System
Tripno 128 of the Zeeleeuw from 2001-05-10 09:20:00 to 2001-05-10 13:55:00
Back to CruiseResearch ActivitiesStationsMapUnderway DataData graphs

EquipmentUnitsComment
TimeDGPSUTC
LatitudeDGPSDM.mWGS84
LongitudeDGPSDM.mWGS84
HeadingGyrodeg 
SOGDGPSknotsSpeed over ground
COGDGPSdegCourse over ground
DepthEcho soundermeters200 kHz
Missing or incorrect values are displayed as -999
Navigation data collected by the RV Zeeleeuw from 2001-05-10 09:20:00 to 2001-05-10 13:55:00
Time Latitude Longitude Heading SOG COG Depth
2001-05-10 09:31:25 51°9.694 2°39.748 66.3 1.1 70.9 7
2001-05-10 09:32:25 51°9.697 2°39.78 66 1.6 76.1 6.9
2001-05-10 09:33:25 51°9.707 2°39.826 63.7 2 73.7 7
2001-05-10 09:34:25 51°9.717 2°39.882 67.3 2.3 78.7 6.9
2001-05-10 09:35:25 51°9.728 2°39.942 65.2 2.3 71.2 6.9
2001-05-10 09:36:25 51°9.739 2°40 66 2.1 75.8 6.9
2001-05-10 09:37:25 51°9.749 2°40.054 63.8 2.1 74.3 6.9
2001-05-10 09:38:25 51°9.76 2°40.108 66 2.1 79.1 6.8
2001-05-10 10:31:28 51°11.64 2°45.79 65.2 9 66.3 10.5
2001-05-10 10:35:05 51°11.847 2°46.587 65 9 68.3 10.5
2001-05-10 10:36:05 51°11.902 2°46.811 66.2 9.1 69 10.3
2001-05-10 10:37:05 51°11.955 2°47.036 64 9.1 66.7 10.4
2001-05-10 10:38:05 51°12.015 2°47.257 59.5 9.1 61.9 10.3
2001-05-10 10:39:05 51°12.085 2°47.471 59.7 9.1 62.4 10.3
2001-05-10 10:40:05 51°12.155 2°47.688 60 9.3 62.1 10.2
2001-05-10 10:41:05 51°12.226 2°47.907 59.8 9.2 62.5 10.1
2001-05-10 10:42:05 51°12.29 2°48.131 60.5 9.3 62 10.1
2001-05-10 10:43:05 51°12.366 2°48.352 60 9.6 63.8 9.9
2001-05-10 10:44:05 51°12.436 2°48.583 59.2 9.6 62.1 9.9
2001-05-10 11:12:32 51°14.332 2°54.065 68.8 1.7 87 7.8
2001-05-10 11:13:32 51°14.334 2°54.11 68.7 1.7 87.4 7.9
2001-05-10 11:14:31 51°14.334 2°54.15 68.3 1.6 90.5 7.7
2001-05-10 11:15:31 51°14.336 2°54.19 68.8 1.5 83 7.8
2001-05-10 11:16:31 51°14.337 2°54.228 68.5 1.5 87.7 7.7
2001-05-10 11:17:31 51°14.338 2°54.267 68.7 1.4 86.6 7.8
2001-05-10 11:18:31 51°14.34 2°54.305 68.3 1.4 86.1 7.6
2001-05-10 11:19:31 51°14.343 2°54.342 68.3 1.4 86.4 7.7
2001-05-10 11:20:31 51°14.344 2°54.379 68.7 1.4 90.8 7.5
2001-05-10 11:21:31 51°14.359 2°54.488 69.8 6.4 73.6 7.5
2001-05-10 11:22:31 51°14.402 2°54.665 64.2 7.9 68.1 7.8
2001-05-10 11:23:31 51°14.446 2°54.878 77.2 8.7 85.5 8.4
2001-05-10 11:24:32 51°14.415 2°55.116 107.3 9.2 115.2 -999
2001-05-10 11:25:32 51°14.321 2°55.315 124.5 9.4 128.6 -999
2001-05-10 11:26:32 51°14.23 2°55.446 147.8 6.3 152 -999
2001-05-10 11:27:34 51°14.123 2°55.517 152.2 6.7 157.4 -999